Weather History for KAPF - April, 2012

Change the Weather History Date:

Saturday, April 7, 2012

  Actual Average Record
Temperature  
Mean Temperature 74 °F 72 °F  
Max Temperature 85 °F 82 °F 90 °F (2011)
Min Temperature 62 °F 62 °F 45 °F (1974)
Degree Days  
Heating Degree Days 0 0  
Month to date heating degree days 0 0  
Since 1 July heating degree days 121 256  
Cooling Degree Days 9 7  
Month to date cooling degree days 73 49  
Year to date cooling degree days 615 416  
Growing Degree Days 24 (Base 50)    
Moisture  
Dew Point 59 °F    
Average Humidity 62    
Maximum Humidity 84    
Minimum Humidity 40    
Precipitation  
Precipitation 0.00 in 0.08 in 0.97 in (1991)
Month to date precipitation 0.80 0.57  
Year to date precipitation 5.18 6.90  
Snow  
Snow 0.00 in - - ()
Month to date snowfall 0.0  
Since 1 July snowfall 0.0  
Snow Depth 0.00 in    
Sea Level Pressure  
Sea Level Pressure 30.02 in    
Wind  
Wind Speed 12 mph (NE)    
Max Wind Speed 23 mph    
Max Gust Speed 28 mph    
Visibility 10 miles    
Events      
T = Trace of Precipitation, MM = Missing Value Source: NWS Daily Summary

Daily Weather History Graph

Daily Weather History Graph

Search for Another Location

Airport or City:

Trip Planner

Search our weather history database for the weather conditions in past years. The results will help you decide how hot, cold, wet, or windy it might be!

Date:

Astronomy

Apr. 07, 2012 Rise Set
Actual Time 7:11 AM EDT 7:47 PM EDT
Civil Twilight 6:48 AM EDT 8:10 PM EDT
Nautical Twilight 6:20 AM EDT 8:37 PM EDT
Astronomical Twilight 5:52 AM EDT 9:05 PM EDT
Moon 9:05 PM EDT (4/7) 7:32 AM EDT (4/7)
Length of Visible Light 13h 22m
Length of Day
12h 35m
Full, 99% of the Moon is Illuminated
Apr 7
Full
Apr 13
Last Quarter
Apr 21
New
Apr 29
First Quarter
May 5
Full

Hourly Weather History & Observations

Time (EDT) Temp. Heat Index Dew Point Humidity Pressure Visibility Wind Dir Wind Speed Gust Speed Precip Events Conditions
12:53 AM 69.1 °F - 57.0 °F 65% 29.95 in 10.0 mi North 5.8 mph - N/A   Clear
1:53 AM 68.0 °F - 59.0 °F 73% 29.94 in 10.0 mi NNE 10.4 mph 16.1 mph N/A   Partly Cloudy
2:53 AM 66.0 °F - 59.0 °F 78% 29.94 in 10.0 mi NNE 10.4 mph - N/A   Clear
3:53 AM 64.9 °F - 59.0 °F 81% 29.94 in 10.0 mi NNE 10.4 mph - N/A   Clear
4:53 AM 64.0 °F - 57.9 °F 80% 29.95 in 10.0 mi NNE 6.9 mph - N/A   Clear
5:53 AM 63.0 °F - 57.9 °F 84% 29.96 in 10.0 mi NNE 8.1 mph 16.1 mph N/A   Clear
6:53 AM 63.0 °F - 57.9 °F 84% 29.99 in 10.0 mi NNE 10.4 mph - N/A   Clear
7:53 AM 63.0 °F - 57.9 °F 84% 30.01 in 10.0 mi NE 11.5 mph - N/A   Clear
8:53 AM 66.9 °F - 59.0 °F 76% 30.04 in 10.0 mi NE 13.8 mph - N/A   Clear
9:53 AM 72.0 °F - 61.0 °F 68% 30.04 in 10.0 mi NE 10.4 mph - N/A   Clear
10:53 AM 77.0 °F - 62.1 °F 60% 30.05 in 10.0 mi ENE 11.5 mph 19.6 mph N/A   Clear
11:53 AM 80.1 °F 81.1 °F 61.0 °F 52% 30.06 in 10.0 mi East 13.8 mph - N/A   Scattered Clouds
12:53 PM 81.0 °F 81.6 °F 60.1 °F 49% 30.05 in 10.0 mi ESE 10.4 mph - N/A   Mostly Cloudy
1:53 PM 81.0 °F 81.1 °F 57.9 °F 45% 30.05 in 10.0 mi ENE 8.1 mph - N/A   Mostly Cloudy
2:53 PM 84.0 °F 83.5 °F 57.9 °F 41% 30.03 in 10.0 mi NE 8.1 mph - N/A   Mostly Cloudy
3:53 PM 82.0 °F 82.0 °F 57.9 °F 44% 30.01 in 10.0 mi ENE 15.0 mph 19.6 mph N/A   Mostly Cloudy
4:53 PM 82.9 °F 83.7 °F 62.1 °F 49% 30.01 in 10.0 mi ENE 16.1 mph 20.7 mph N/A   Mostly Cloudy
5:53 PM 81.0 °F 81.7 °F 61.0 °F 50% 30.01 in 10.0 mi ENE 18.4 mph 25.3 mph N/A   Scattered Clouds
6:53 PM 79.0 °F - 60.1 °F 52% 30.02 in 10.0 mi ENE 18.4 mph - N/A   Partly Cloudy
7:53 PM 75.0 °F - 59.0 °F 57% 30.05 in 10.0 mi ENE 15.0 mph - N/A   Partly Cloudy
8:53 PM 73.0 °F - 59.0 °F 61% 30.07 in 10.0 mi ENE 13.8 mph - N/A   Partly Cloudy
9:53 PM 71.1 °F - 57.9 °F 63% 30.09 in 10.0 mi ENE 15.0 mph - N/A   Clear
10:53 PM 70.0 °F - 57.0 °F 63% 30.10 in 10.0 mi ENE 16.1 mph - N/A   Clear
11:53 PM 68.0 °F - 57.0 °F 68% 30.10 in 10.0 mi ENE 13.8 mph - N/A   Clear